Wind_Speed
29 29 28 26 24 23 23 21 19 18 16 14 16 15 13 11 12 11 9 10 10 10 10 11 12 13 14 14 15 16 17 18 18 18 18 18 17 17 16 15 15 15 15 15 14 14 14 17 18 17 16 15 13 11 9 7 6 6 7 11 15 16 11 8 11 14 12 7 5 3 2 2 2 2 6 9 7 5 6 8 6 4 5 7 10
30 29 28 26 24 24 24 23 20 18 15 13 12 12 12 11 11 11 11 11 11 11 11 11 12 13 13 13 14 15 15 15 16 15 15 15 14 14 13 12 12 12 11 11 11 11 11 12 14 14 15 14 11 9 9 8 8 9 9 10 13 11 6 5 7 10 11 11 9 6 5 7 6 2 3 7 6 5 5 6 6 4 4 7 10
28 27 27 26 24 24 23 22 20 17 13 11 10 10 11 12 12 11 11 11 11 11 11 11 11 11 11 12 13 13 13 12 13 13 12 12 11 10 10 9 9 9 8 8 8 8 9 9 9 10 11 12 9 8 10 11 11 11 10 9 9 9 6 5 5 6 8 11 11 7 7 8 7 3 1 3 5 4 4 5 5 3 3 6 9
27 26 25 25 25 24 21 19 17 14 11 9 9 9 9 10 12 11 11 12 12 12 11 11 11 10 9 10 11 11 11 10 11 12 11 10 9 8 8 8 8 7 6 5 5 5 6 7 7 7 9 10 9 8 10 12 11 11 11 9 8 8 7 5 5 5 7 11 11 7 7 7 5 3 4 2 2 3 2 3 2 2 3 5 8
24 25 24 24 24 22 20 17 14 12 10 9 9 9 8 8 9 10 10 11 12 12 11 11 11 11 8 8 8 9 9 8 9 10 9 8 7 7 7 8 9 9 6 3 2 2 3 5 6 6 7 9 10 10 10 10 10 11 12 12 12 11 9 8 7 6 6 9 10 8 7 5 5 5 6 3 2 2 3 4 5 5 6 8 10
17 18 20 20 19 18 18 18 16 16 14 13 12 11 10 10 10 10 11 11 12 12 10 11 12 11 9 7 6 6 7 7 8 9 8 7 5 5 5 7 9 10 9 7 5 4 4 4 5 6 7 8 9 10 11 11 10 11 12 12 13 13 10 9 10 9 7 7 6 6 6 4 5 6 6 6 4 3 6 8 8 9 10 11 12
14 15 15 14 13 14 16 18 19 18 17 16 15 13 12 11 10 11 12 11 11 11 9 10 11 10 9 9 8 7 7 8 9 9 9 8 7 7 7 7 8 9 10 10 9 9 8 7 7 7 8 9 10 10 11 12 12 12 11 10 12 14 11 8 10 10 10 8 6 5 6 5 6 6 5 8 9 8 8 11 12 13 14 15 16
13 11 10 12 14 14 15 18 19 19 17 16 14 13 12 10 9 11 11 10 10 10 9 9 11 11 11 12 12 12 11 10 10 10 10 11 12 11 10 8 7 8 9 9 9 9 8 8 9 9 9 10 10 11 11 11 12 12 11 10 11 13 10 6 9 11 11 10 8 6 7 8 9 8 8 10 12 11 11 13 14 15 16 17 17
8 5 6 10 13 13 15 17 17 17 16 15 14 14 14 12 13 14 13 11 11 12 12 12 13 15 15 14 15 14 14 13 13 12 12 14 14 13 11 9 8 8 9 9 10 10 10 11 11 11 11 12 11 11 11 11 11 12 12 12 12 12 11 9 9 12 13 11 9 7 8 10 11 11 10 11 12 11 11 13 14 16 17 17 17
3 3 5 7 8 9 12 14 16 17 16 15 16 16 15 15 17 18 17 16 15 15 16 15 16 17 17 17 17 17 16 15 15 15 15 15 15 14 12 11 10 10 11 11 10 11 12 13 14 13 13 14 13 12 11 10 11 12 12 13 13 13 12 11 11 13 14 13 11 10 10 10 11 11 11 11 12 12 13 14 15 16 18 18 19
2 3 5 6 6 7 7 10 14 16 15 16 17 18 17 17 18 19 19 19 18 17 17 17 18 18 18 19 19 19 19 18 17 17 17 17 17 16 14 13 13 13 13 13 13 13 14 15 16 16 15 16 15 14 13 11 10 11 12 13 13 13 11 9 10 13 15 14 13 12 12 11 11 11 11 12 12 12 14 15 16 17 18 20 22
7 8 6 4 6 7 7 9 12 13 13 14 16 18 18 17 18 20 21 21 20 19 19 19 19 19 19 19 19 20 20 19 19 18 18 18 18 17 16 15 15 16 15 14 15 16 17 17 17 17 16 16 16 16 15 13 12 12 12 12 12 11 10 9 9 11 13 14 14 14 13 14 14 13 13 14 14 14 16 17 18 19 20 22 24
17 15 11 6 5 6 5 6 8 11 12 12 14 17 18 20 21 21 21 21 20 21 21 21 21 21 21 21 21 21 20 19 19 19 17 17 18 18 18 18 19 18 16 15 17 19 19 17 15 14 15 16 17 16 16 14 12 12 12 12 11 10 10 10 10 11 12 12 13 14 14 15 16 15 15 17 18 18 19 20 21 22 23 25 26
24 22 18 12 8 7 6 4 4 6 8 9 11 13 15 18 20 22 23 23 22 22 22 22 21 21 22 22 22 22 20 20 20 20 17 16 17 19 19 19 19 18 16 16 17 17 15 13 11 11 14 16 16 15 14 12 11 11 11 11 10 10 10 10 11 11 12 13 14 15 16 16 17 18 18 19 20 21 22 22 23 24 25 26 27
29 28 26 22 17 13 11 10 8 6 5 6 7 7 9 11 13 15 18 19 19 20 22 23 22 21 21 22 23 23 22 21 21 21 18 16 16 17 17 17 16 16 15 14 12 11 11 11 10 11 13 15 15 14 13 12 11 11 10 9 8 8 8 9 10 11 12 13 14 15 16 17 18 19 20 20 21 22 23 23 23 24 26 26 26
25 25 25 25 23 19 16 14 12 9 5 4 5 5 4 3 3 5 7 9 11 13 15 18 19 20 20 21 21 21 21 20 20 20 20 18 17 17 16 14 13 13 13 12 11 13 14 13 13 14 13 13 13 12 12 12 10 9 8 8 7 7 7 8 9 10 11 12 14 15 16 16 17 17 18 19 20 21 21 22 23 25 25 26 26
18 18 17 17 17 16 15 15 15 12 9 5 4 5 5 4 3 3 3 4 6 8 9 11 13 15 16 17 18 18 17 18 19 19 18 18 17 15 13 11 13 14 14 13 14 15 16 15 15 15 14 12 11 10 10 9 8 8 8 8 8 8 8 8 8 8 9 9 10 12 12 12 13 14 15 17 18 19 21 21 22 23 22 23 23
11 11 10 9 9 9 9 9 9 10 11 11 8 5 5 5 4 4 5 6 6 6 8 9 10 11 13 14 15 15 15 16 16 16 17 17 16 13 11 12 15 16 15 15 15 15 15 15 14 13 12 11 9 9 9 8 9 9 9 8 9 9 9 10 9 9 9 9 9 10 10 11 12 13 15 17 18 18 18 18 18 19 19 19 20
4 4 5 4 3 3 3 3 3 3 4 6 6 5 5 4 2 1 4 6 7 7 7 7 8 9 10 11 12 13 13 13 13 14 15 14 14 13 12 14 17 17 16 17 16 14 14 15 14 13 12 11 10 10 10 10 10 11 11 11 11 11 11 11 12 12 12 11 11 12 12 14 15 16 16 16 15 14 14 14 15 16 17 18 18
4 5 5 4 3 2 2 3 3 3 3 2 2 3 4 3 2 1 2 3 6 8 8 8 9 9 9 9 10 11 12 11 9 10 11 12 13 14 13 15 17 15 16 18 18 16 17 17 16 16 15 14 13 12 11 10 10 10 11 12 13 12 12 13 14 15 15 15 15 15 16 16 17 17 15 13 13 13 14 15 16 17 17 18 18
8 9 9 8 6 4 4 6 7 8 8 7 7 6 7 8 8 7 5 4 4 6 7 8 11 12 11 10 9 10 12 11 9 7 8 10 13 14 14 16 17 13 16 22 21 19 20 20 20 20 19 17 14 12 11 11 10 10 11 12 12 13 13 13 14 16 17 17 17 17 17 17 17 17 15 14 15 16 16 16 16 16 17 18 20
10 11 12 11 10 9 8 9 9 8 7 6 8 8 7 8 10 11 11 9 8 7 6 6 8 11 12 13 12 12 12 13 11 10 10 11 14 16 16 19 20 16 18 25 25 21 20 20 20 21 20 17 14 12 11 11 10 10 10 11 12 13 14 14 16 17 18 18 17 17 16 16 16 16 15 15 15 15 15 14 14 16 17 19 20
10 11 12 13 13 12 11 11 10 9 8 7 8 8 7 7 8 10 11 12 12 12 12 11 10 11 12 14 16 16 16 17 16 15 15 15 16 17 17 21 24 19 18 23 25 21 19 19 19 20 18 14 12 12 11 11 10 10 10 11 12 14 15 16 16 17 17 17 17 15 14 14 14 15 15 15 15 15 15 15 16 18 19 21 22
10 10 11 12 13 14 14 13 12 11 11 10 11 10 9 9 10 10 10 10 11 13 14 15 15 15 14 15 16 17 20 22 21 18 18 18 18 19 20 22 24 21 19 21 23 21 20 19 19 19 16 13 12 13 12 11 11 10 10 11 12 13 15 15 16 16 16 16 15 13 12 12 12 13 15 17 18 18 19 20 21 23 24 25 26
11 11 11 12 13 15 16 15 14 14 14 14 13 13 12 11 11 10 9 9 10 12 13 15 16 17 18 18 17 17 20 23 22 20 19 19 19 21 23 24 24 22 20 20 21 20 19 18 18 19 17 14 14 14 13 12 11 10 10 10 11 13 14 14 14 14 14 13 13 12 12 12 13 15 17 19 21 23 24 25 26 27 28 27 27
13 13 13 14 15 15 16 16 15 15 14 14 14 14 13 13 13 12 11 11 10 12 13 15 17 18 19 20 20 19 20 21 22 22 22 22 21 23 26 26 25 24 21 18 17 17 18 18 19 20 20 17 15 15 13 12 11 11 10 11 12 13 12 12 11 10 10 11 13 13 14 15 16 17 19 21 23 24 26 27 27 28 27 27 27
13 13 14 15 15 15 16 17 18 17 16 15 15 14 14 14 14 12 12 12 13 14 14 14 15 16 18 18 17 17 18 20 22 24 26 27 27 28 28 26 24 23 23 21 18 16 17 20 22 22 21 19 17 16 14 13 12 11 11 12 12 11 10 9 9 9 9 11 13 14 15 16 17 18 20 22 23 24 25 25 25 24 24 25 24
14 14 13 13 13 14 14 15 15 16 16 14 14 13 12 13 13 12 11 12 14 17 17 16 15 15 15 15 13 12 14 17 19 21 24 27 29 29 28 27 25 23 22 22 22 20 20 24 25 22 19 18 18 17 15 14 13 12 12 12 11 9 9 9 8 8 8 9 11 12 13 15 17 18 20 21 21 22 22 22 22 22 22 21 19
15 15 15 13 13 14 14 13 12 13 13 13 12 11 10 11 11 12 11 9 10 13 16 18 19 18 18 18 16 14 14 14 14 16 17 20 23 26 27 28 29 26 21 19 20 22 24 25 21 16 16 18 18 17 16 15 14 12 11 10 9 8 8 8 8 7 8 8 9 11 13 15 17 18 18 18 18 20 21 21 22 21 19 17 17
14 13 13 14 15 15 16 15 14 14 14 14 15 14 13 13 13 13 13 13 12 12 14 15 17 18 18 18 17 17 17 17 15 14 13 13 16 19 22 24 27 28 24 19 18 20 23 23 18 14 16 19 18 18 17 16 13 12 10 9 8 8 8 9 9 9 9 10 11 12 14 14 15 15 15 16 18 20 21 22 22 18 16 16 17
12 10 10 11 11 13 14 15 16 16 17 18 19 20 20 19 18 16 16 15 14 14 15 15 15 15 15 15 15 14 15 17 18 17 15 13 13 16 18 21 24 27 27 23 20 20 21 21 21 20 20 20 19 19 17 15 13 12 10 9 8 8 9 10 10 10 11 12 11 11 10 11 12 13 14 16 18 19 20 21 19 16 15 16 17
10 11 11 12 12 13 12 10 11 12 14 16 18 20 22 23 23 23 22 20 18 17 16 16 16 15 14 14 14 14 13 14 16 18 18 17 16 16 17 18 20 24 26 27 25 23 20 21 23 24 22 21 21 19 16 15 14 12 10 9 9 8 9 10 10 10 11 10 9 8 8 9 10 12 14 16 17 18 19 19 17 16 16 17 18
10 11 12 13 14 15 15 13 11 10 11 13 14 15 18 20 22 24 24 25 25 23 20 17 16 16 15 13 13 14 13 13 14 15 16 17 17 16 14 13 14 19 25 29 29 26 25 26 28 27 25 24 23 19 17 15 14 12 11 10 9 9 9 9 9 9 9 8 8 8 8 8 9 11 13 15 17 17 18 18 17 17 18 19 19
12 9 10 12 13 14 16 16 15 13 13 14 15 15 16 17 19 21 22 23 24 26 25 21 18 17 16 14 12 12 12 12 12 13 13 14 14 14 14 14 15 17 22 28 30 30 29 30 31 31 30 27 23 19 17 16 15 14 12 10 9 9 9 9 10 10 9 8 8 7 6 6 8 11 13 15 16 17 17 17 18 18 18 19 20
16 13 10 11 13 15 16 17 16 15 15 15 15 16 17 18 19 20 22 22 22 23 24 23 21 18 16 14 12 11 10 10 10 11 12 13 13 14 16 18 19 19 21 27 31 32 33 34 35 34 31 25 21 18 17 18 18 16 13 12 11 11 11 11 11 10 9 8 7 7 6 7 10 12 13 15 16 16 16 17 18 18 18 19 18
16 16 15 14 15 16 17 17 16 14 13 14 15 17 18 19 20 20 20 20 20 21 22 21 20 18 15 13 13 10 8 8 8 8 10 12 14 16 17 19 21 23 26 30 33 35 36 35 32 27 23 21 19 18 20 21 19 16 13 12 13 13 13 12 11 10 8 7 7 7 7 8 10 12 13 15 16 16 16 17 17 18 18 17 15
14 16 18 17 16 16 16 16 14 13 12 13 15 16 16 16 17 17 17 18 18 18 19 19 18 17 15 14 13 10 8 7 7 7 9 10 12 14 15 15 18 25 30 33 34 36 36 31 24 22 23 22 20 20 20 19 16 14 12 12 13 14 12 10 8 7 7 6 6 7 7 9 11 12 13 15 16 16 17 17 17 17 15 12 11
14 16 18 17 15 15 15 14 13 13 14 15 16 16 15 14 14 15 16 17 17 16 14 13 12 12 12 13 12 10 7 6 6 6 8 10 11 12 12 11 15 21 24 24 24 25 25 23 21 23 25 23 20 18 16 14 13 12 12 13 13 11 9 7 7 7 7 6 6 8 9 10 12 13 14 15 15 15 16 15 14 12 10 10 11
14 16 17 16 14 13 13 13 13 15 15 16 17 17 15 13 13 14 15 15 14 12 10 8 6 7 8 10 12 11 8 7 6 4 6 9 10 10 11 11 12 13 16 18 19 19 21 23 24 23 21 19 15 13 12 12 12 12 12 12 11 9 8 8 8 8 8 8 8 9 10 11 12 14 15 15 13 11 10 9 8 8 9 11 12
14 16 17 16 14 13 13 12 13 14 15 15 16 16 15 15 16 16 15 13 11 9 8 7 6 6 7 9 11 12 10 9 6 4 5 8 10 9 8 8 8 9 14 18 20 21 23 25 25 22 17 13 12 12 12 13 13 12 13 12 12 12 11 10 9 9 10 10 10 10 10 11 12 14 15 14 11 8 8 8 8 8 10 11 12
13 16 17 17 15 14 12 12 13 14 14 14 15 15 14 16 17 18 17 14 10 7 7 6 6 6 7 8 8 8 8 7 3 1 2 5 8 8 5 5 6 10 13 16 18 20 20 19 19 18 16 15 15 15 15 14 13 12 12 12 12 13 12 10 10 11 11 11 10 10 9 10 12 13 13 12 9 8 7 7 8 9 9 10 11
11 14 17 18 17 16 14 12 13 14 15 15 14 13 13 13 14 16 17 16 12 8 6 4 4 4 5 5 5 5 6 3 3 6 3 2 6 6 6 7 8 9 11 11 12 15 16 16 17 18 18 18 17 16 15 14 13 12 12 13 12 12 11 11 12 12 12 11 10 9 9 9 11 12 11 8 6 6 6 7 9 9 10 10 12
10 14 16 16 17 17 18 16 15 14 15 15 15 13 11 11 12 13 13 13 12 11 10 9 7 5 3 1 1 3 2 1 4 4 2 5 7 7 8 9 10 11 12 11 12 15 17 17 17 16 16 16 16 15 14 13 12 12 12 12 12 11 11 11 11 11 10 9 8 8 8 8 10 11 9 6 4 4 5 7 9 10 10 11 13
8 12 14 14 15 15 16 18 18 16 14 13 14 14 13 12 12 12 12 11 11 13 14 14 12 11 10 8 6 6 6 6 4 4 7 10 11 11 11 11 12 14 16 15 15 16 17 16 16 15 14 14 13 12 11 11 11 11 11 10 9 9 8 8 7 7 7 7 6 6 7 7 8 8 7 5 4 4 6 8 10 10 11 11 12
5 10 12 12 12 13 14 16 18 17 15 12 11 12 13 12 12 13 13 13 12 13 14 14 14 14 13 12 11 9 8 7 6 8 10 12 12 12 12 11 12 15 17 16 15 15 15 15 15 14 13 11 10 10 10 9 9 9 9 8 6 5 4 4 4 4 4 4 5 5 6 6 6 6 5 4 4 5 6 8 10 11 10 11 12
4 9 11 10 10 11 12 13 14 15 16 15 12 12 12 12 12 12 12 12 12 11 11 10 11 12 12 12 11 9 8 8 10 10 11 12 13 15 15 15 15 17 18 18 16 15 13 12 11 11 10 10 10 11 11 10 8 7 7 6 4 2 1 1 2 2 2 2 3 4 4 5 6 5 4 3 3 5 6 7 10 10 10 10 12
3 7 9 9 10 10 10 11 12 13 14 15 15 14 14 14 12 11 9 9 9 8 8 7 7 7 8 8 7 7 7 9 11 13 15 16 16 18 19 19 19 19 19 17 15 13 11 9 8 8 8 8 9 9 10 9 7 6 5 4 2 2 1 2 3 4 3 1 2 2 3 4 5 5 3 2 3 5 6 8 9 9 9 10 12
2 5 7 8 9 9 9 8 9 9 10 12 14 14 14 15 14 12 10 9 7 6 6 7 7 7 6 6 5 6 8 11 13 16 17 18 18 18 18 17 16 14 13 11 10 9 9 8 7 6 4 4 5 5 6 6 6 5 4 3 2 2 2 2 3 5 5 4 2 2 2 3 4 4 4 5 5 5 6 7 9 9 10 10 11
2 4 5 6 8 9 8 8 7 6 6 7 9 11 13 13 14 13 12 11 10 8 7 6 6 6 6 6 6 7 9 11 12 13 12 12 11 10 9 8 8 7 6 7 8 8 7 5 4 3 3 3 3 5 5 5 4 3 3 3 3 2 2 2 3 5 6 6 5 4 4 3 3 4 5 7 6 5 5 6 7 9 10 9 10
4 3 3 5 7 7 7 7 8 6 4 4 5 7 9 9 10 11 11 11 11 11 10 9 9 9 9 8 7 7 7 7 7 6 5 4 4 4 4 3 4 6 7 7 7 7 6 5 5 5 4 3 4 4 4 3 2 2 3 3 2 1 2 2 2 4 5 6 7 7 5 4 4 5 6 6 6 7 7 5 6 8 10 9 10
5 5 3 2 2 3 4 5 7 7 5 2 1 2 3 5 6 6 6 7 8 8 8 9 10 10 10 9 8 6 6 6 6 5 5 5 5 5 5 4 3 3 5 5 5 5 5 5 5 5 4 4 5 4 3 2 1 2 2 2 1 1 1 1 2 2 3 4 6 6 5 5 5 6 7 7 6 6 7 6 5 7 9 9 9
Wind_Direction
202 201 202 202 199 191 182 179 186 193 195 189 183 184 189 188 183 178 169 161 157 151 144 136 130 128 127 127 126 126 126 125 123 123 123 122 122 122 123 124 121 118 119 117 115 113 111 113 117 121 128 134 131 129 133 126 115 127 122 130 159 179 182 172 162 159 165 183 190 184 191 196 183 65 28 25 42 72 67 49 32 15 15 12 11
205 203 202 201 199 192 184 182 189 196 197 190 185 188 194 198 194 185 171 163 160 157 150 141 136 134 134 134 133 132 132 130 128 129 129 127 126 128 130 129 124 123 123 120 117 117 116 117 120 122 127 133 133 127 131 135 127 124 120 121 138 150 149 144 153 160 173 180 175 176 193 210 225 220 41 23 24 43 53 48 34 11 350 348 350
208 205 202 200 198 192 187 187 192 197 197 190 186 189 194 201 204 196 179 168 164 158 152 146 141 139 139 138 138 140 141 138 133 134 137 137 135 134 134 132 130 131 130 122 119 122 124 127 129 132 136 139 138 134 133 137 136 129 123 124 130 127 120 117 121 136 167 176 170 167 185 209 239 252 67 17 9 15 26 34 30 1 328 337 342
213 210 205 201 199 195 192 193 193 194 193 186 185 193 198 202 206 205 188 173 169 162 156 154 148 145 148 147 145 149 152 150 144 142 147 149 147 144 141 140 137 134 134 133 130 129 134 142 148 150 154 156 158 157 150 148 151 148 140 138 142 144 145 143 131 125 149 166 169 167 175 200 234 241 201 175 32 21 10 359 333 264 275 316 331
215 214 209 202 198 195 193 194 192 188 184 178 184 195 204 209 210 208 193 178 177 171 163 164 159 154 158 157 154 158 162 162 155 153 159 160 160 159 150 145 139 135 139 150 151 147 146 154 162 166 174 181 184 185 181 175 173 172 168 160 156 157 155 152 153 153 159 168 171 168 174 200 231 233 212 198 16 16 201 222 238 238 265 297 310
207 209 206 197 191 190 190 192 193 193 190 190 194 196 200 205 201 196 189 181 184 183 172 168 163 157 161 166 167 171 172 174 173 172 171 165 167 166 152 151 153 155 164 173 180 193 195 188 188 187 185 189 191 192 190 187 183 186 189 185 179 178 172 159 158 158 166 176 173 172 186 208 216 216 215 225 264 264 214 225 242 248 265 283 292
207 210 209 201 200 201 199 198 198 197 197 199 200 196 198 203 197 192 190 183 184 184 174 167 163 161 171 179 187 196 196 194 193 193 188 176 173 177 175 177 180 182 188 191 192 200 210 220 228 222 205 196 194 191 189 188 188 194 202 200 194 192 187 179 179 172 163 164 167 184 205 213 206 210 224 235 249 258 249 255 263 261 264 271 279
208 207 197 197 205 208 207 204 199 195 198 205 207 202 203 204 192 190 196 191 186 186 183 174 168 175 187 188 194 207 214 213 208 205 200 188 183 189 198 206 210 210 214 217 220 224 227 232 237 235 225 215 203 194 192 194 196 203 212 211 203 198 196 207 209 196 183 176 176 193 216 221 219 226 247 259 268 272 260 256 261 263 266 273 281
210 188 151 176 192 199 207 210 205 198 198 203 206 205 207 208 195 191 197 198 189 192 198 189 180 189 198 195 199 211 219 221 220 219 214 205 201 205 212 220 227 234 243 247 248 251 249 244 241 237 233 230 220 204 194 197 204 210 216 218 218 217 225 242 234 211 199 195 195 206 219 227 229 231 240 251 259 261 256 253 258 265 273 281 287
211 171 148 164 187 206 221 221 215 211 205 202 207 209 211 211 201 193 195 198 196 200 207 200 191 199 205 202 205 213 220 228 231 231 229 224 222 222 220 222 232 248 257 256 255 260 260 253 246 242 237 233 230 222 209 206 213 217 217 217 222 229 237 245 240 219 205 203 211 219 220 228 238 240 241 243 242 247 257 262 267 274 279 283 286
125 129 147 156 166 191 218 215 208 209 204 199 206 209 207 208 205 198 197 201 202 204 208 205 202 208 213 213 215 220 225 234 240 241 242 241 239 237 230 227 234 246 254 260 263 264 264 259 250 246 243 235 230 230 225 222 226 225 220 217 218 226 232 232 226 218 213 215 225 231 229 232 240 244 248 253 254 257 264 269 274 277 281 286 291
84 86 102 129 139 157 188 197 198 201 196 193 204 209 207 208 208 206 206 207 209 209 211 212 213 215 219 222 225 228 232 238 244 249 252 251 246 240 236 236 242 249 256 265 269 268 267 265 254 246 241 232 226 227 228 228 231 229 225 220 218 221 227 227 221 218 220 225 234 241 244 247 251 253 255 259 262 263 267 271 276 281 287 294 297
66 68 71 87 110 129 170 194 196 199 194 190 199 205 209 213 214 213 214 214 214 215 218 221 223 224 226 229 232 236 239 243 247 250 253 254 249 243 244 249 254 257 261 265 268 269 268 260 246 233 226 223 222 224 224 222 223 222 221 220 219 220 225 231 231 229 230 234 239 245 249 253 256 258 260 264 266 268 271 275 279 284 289 293 296
68 64 61 65 82 99 102 103 137 171 182 187 193 197 204 212 215 217 219 220 223 225 226 229 231 232 233 235 238 240 244 250 253 252 252 251 249 248 253 257 257 257 258 258 260 262 254 239 223 213 211 213 214 213 210 208 209 212 212 213 216 222 228 234 238 241 241 243 246 250 253 256 259 262 266 270 272 274 277 279 282 285 290 294 299
79 73 65 59 60 71 76 74 81 93 114 144 165 184 199 208 214 216 220 224 229 232 235 237 239 241 243 245 246 248 252 256 257 256 255 254 250 252 259 260 257 252 247 242 238 226 208 196 192 194 200 204 202 199 198 198 198 202 205 205 210 221 231 238 245 249 250 250 250 253 256 259 263 268 272 275 277 279 281 284 288 292 296 300 303
85 80 73 64 58 61 64 66 70 67 67 118 142 142 154 186 216 222 225 227 229 231 235 239 243 247 249 251 252 253 254 256 257 257 258 257 254 257 262 258 246 232 218 207 199 189 176 170 177 187 193 196 194 193 196 197 196 203 210 208 212 225 239 249 252 256 260 259 256 256 256 260 266 271 276 280 282 284 286 291 296 299 301 303 304
82 77 74 70 66 66 69 73 81 83 79 94 137 135 105 76 39 356 317 280 256 248 244 244 248 251 254 256 257 256 256 256 258 260 258 256 256 255 251 236 215 201 192 191 193 188 177 174 183 189 188 187 191 197 201 201 207 220 225 222 226 237 249 255 259 264 271 273 272 270 269 272 278 283 287 289 291 293 296 299 300 301 303 304 305
88 77 70 69 73 80 87 88 88 91 89 88 92 99 92 76 47 0 335 320 303 280 264 257 258 258 257 258 258 259 257 254 256 256 251 251 250 239 224 208 195 189 189 193 196 193 188 188 191 193 191 193 199 205 205 207 217 231 242 244 244 249 256 259 263 267 273 282 286 287 290 292 293 294 295 297 299 300 300 300 302 303 304 304 304
88 65 51 50 66 93 119 131 107 92 97 100 101 101 95 88 87 317 300 306 307 296 280 275 275 271 265 263 261 260 256 251 249 246 242 238 229 218 212 201 194 194 196 197 199 199 198 199 199 197 200 206 211 213 212 213 218 227 240 246 246 249 255 260 265 269 275 282 285 286 288 289 290 293 295 296 296 294 294 297 299 300 299 297 296
320 322 331 332 320 313 291 270 270 293 301 272 222 194 176 171 172 177 226 267 279 283 286 287 287 285 277 271 268 264 260 256 247 236 233 226 214 217 221 208 202 208 208 205 207 205 201 203 205 206 210 215 217 220 223 223 223 225 232 240 243 245 250 259 268 274 277 280 282 281 282 284 287 290 288 283 279 280 286 290 291 290 288 286 286
309 308 308 310 308 297 286 286 289 297 307 310 299 275 245 233 238 243 239 235 247 267 286 289 284 279 277 276 275 265 254 250 244 233 236 234 226 230 230 212 208 219 215 210 214 215 209 209 210 213 220 222 220 222 225 227 230 230 231 237 241 245 250 256 264 271 274 277 278 279 280 285 288 287 282 278 279 283 287 289 286 282 280 280 283
303 302 303 305 305 295 284 284 287 291 299 309 310 306 294 269 254 248 247 244 240 242 258 283 288 281 274 269 268 261 245 239 245 251 257 259 247 241 233 216 212 220 217 213 217 221 217 214 215 219 222 219 215 219 222 224 230 231 232 238 242 246 250 253 258 264 268 273 277 280 284 287 287 285 284 285 286 285 284 284 281 278 278 280 282
293 295 298 300 301 300 295 290 287 286 285 284 284 290 299 292 277 269 264 259 255 250 247 254 270 280 277 270 266 261 246 237 241 249 259 265 256 243 233 219 214 221 224 218 218 220 218 216 216 215 213 209 211 216 216 216 220 225 232 238 242 246 250 253 257 261 265 271 277 280 281 279 275 275 278 281 281 281 281 281 282 283 283 282 282
288 290 294 296 296 295 294 292 291 287 281 277 276 279 283 284 285 290 290 280 271 266 258 255 260 265 273 280 278 265 247 234 230 236 250 260 252 236 227 219 216 221 225 221 221 224 223 217 212 208 206 207 211 210 208 209 214 220 229 236 242 247 251 255 260 263 266 267 268 267 266 264 262 262 263 265 268 273 278 282 286 288 287 285 283
282 286 290 293 293 292 293 295 293 288 281 278 280 283 284 284 284 287 291 287 281 279 273 268 267 263 266 278 281 265 244 232 229 236 247 251 242 229 224 221 219 220 222 222 224 227 223 217 214 212 215 217 213 206 205 208 212 221 233 240 247 252 256 262 266 266 264 261 258 257 256 257 258 257 259 262 266 270 276 281 284 286 286 284 282
279 281 283 286 289 291 293 293 289 286 285 282 282 283 283 287 289 287 288 291 295 295 286 279 277 270 265 270 276 269 254 244 240 240 240 239 235 227 223 222 220 217 217 219 223 224 220 219 220 219 219 218 214 209 208 210 215 225 235 242 250 256 262 266 263 257 253 251 251 252 252 254 259 262 265 269 273 277 282 286 289 291 291 290 289
285 285 283 284 287 287 287 288 286 286 286 284 283 283 283 286 290 293 298 304 307 306 302 294 290 283 274 272 273 266 258 253 248 240 234 232 230 224 219 219 221 221 220 220 223 227 224 220 219 217 213 211 210 210 210 214 221 228 236 245 254 258 256 252 249 247 247 248 251 251 251 254 259 265 271 276 281 286 291 295 297 298 297 295 294
286 285 284 286 288 285 285 290 292 290 287 284 283 286 286 283 281 281 293 309 315 310 303 298 296 293 289 288 286 270 254 247 245 243 240 238 236 232 226 221 223 226 225 223 228 231 225 215 210 208 207 209 210 211 213 217 223 230 240 250 254 251 244 245 253 260 260 258 257 256 255 258 264 271 276 282 288 294 299 303 304 302 298 298 302
289 282 279 279 279 281 285 289 290 290 288 281 276 276 281 283 285 280 275 284 305 308 297 289 288 289 288 290 291 287 273 256 244 241 242 242 243 242 236 232 232 232 230 228 228 223 216 212 207 201 208 216 217 217 217 219 224 232 241 248 248 244 247 257 269 275 274 270 264 261 263 267 272 277 283 289 298 304 309 311 310 307 307 312 317
310 301 291 282 275 276 282 285 286 286 287 284 278 270 264 265 275 284 276 268 274 286 287 287 289 288 284 283 284 287 287 282 270 258 251 247 244 241 241 242 243 238 230 225 224 219 218 222 225 223 225 228 227 224 220 221 226 229 230 235 241 245 254 262 268 274 277 274 269 269 271 273 276 283 291 301 309 314 315 315 315 316 320 324 323
331 334 328 317 304 295 291 290 289 287 285 286 286 283 276 267 262 265 269 271 274 275 274 278 286 287 283 278 276 279 286 286 279 270 263 257 250 246 247 252 252 245 233 222 219 222 227 234 238 237 235 235 233 227 223 223 225 221 216 221 232 239 247 255 259 265 267 267 270 275 277 277 281 291 303 311 315 318 319 319 321 325 329 329 328
5 8 3 357 350 343 334 323 311 302 295 294 293 290 288 284 274 265 261 263 270 275 274 275 279 282 282 279 274 274 282 289 283 275 268 264 260 257 256 256 257 251 235 223 221 222 222 230 237 237 237 239 235 225 220 223 223 215 212 222 231 234 240 248 251 254 258 265 277 286 286 287 292 301 311 317 319 321 324 328 331 333 331 329 327
21 20 10 360 352 348 346 342 336 330 321 313 307 302 299 297 294 286 274 264 262 264 269 275 276 273 273 276 275 272 274 282 286 281 274 268 266 266 264 261 260 249 233 226 227 226 221 225 233 235 237 240 234 220 214 218 216 210 216 230 237 238 244 251 254 257 266 283 299 300 296 299 307 312 315 318 321 324 328 331 332 330 326 323 321
14 11 0 351 343 337 333 328 320 316 314 309 307 308 307 305 304 304 298 287 274 265 262 265 270 272 272 274 277 275 270 271 277 278 271 263 259 260 260 256 253 247 234 228 229 229 226 227 233 236 236 232 220 208 206 207 203 206 218 229 229 228 235 244 252 262 277 291 292 285 282 289 299 305 310 315 320 324 326 326 325 323 320 318 318
9 6 356 344 337 332 330 327 318 307 302 303 305 307 308 306 303 302 303 304 299 289 278 270 266 269 273 273 274 278 274 268 271 275 268 253 238 236 245 247 246 244 235 227 225 225 227 231 235 234 228 214 198 196 201 200 199 208 222 227 223 219 224 236 250 264 277 279 266 255 260 276 287 297 305 311 315 317 317 317 318 317 318 318 317
4 4 355 342 335 335 337 336 331 324 319 320 319 314 310 307 305 303 302 302 302 299 294 284 272 269 272 274 274 279 279 269 270 282 279 258 237 230 236 243 247 246 239 231 227 227 229 232 231 223 207 192 186 194 200 200 203 213 224 226 222 221 227 239 251 263 267 258 245 248 268 286 294 300 306 308 307 307 308 310 312 313 315 316 316
358 1 356 346 341 343 343 341 342 346 348 344 335 327 320 315 313 313 314 314 311 306 301 292 279 272 272 272 271 277 284 275 272 291 296 274 249 241 241 246 254 252 239 226 222 226 228 226 215 199 191 189 190 196 200 205 213 221 221 218 218 223 233 244 252 258 257 247 249 271 295 307 309 311 312 308 304 303 302 303 305 309 314 319 325
355 359 358 353 350 350 348 347 352 358 360 358 354 348 342 336 333 332 328 325 324 322 316 307 292 282 279 273 268 273 289 280 265 284 299 282 261 255 254 255 265 262 242 219 210 215 216 206 188 183 187 188 190 196 205 213 221 219 213 212 217 226 234 233 228 237 249 260 278 298 308 312 313 316 318 314 309 304 299 298 305 319 336 346 346
354 357 359 358 359 2 359 355 356 359 360 1 1 358 355 352 346 340 337 335 336 335 332 325 310 290 279 271 264 266 285 293 277 280 297 285 270 265 260 256 263 262 240 217 206 200 192 180 173 175 180 183 190 203 211 211 208 204 204 210 216 217 215 211 214 229 252 273 289 298 302 308 316 322 322 320 318 316 314 320 337 353 357 352 347
355 2 8 11 10 10 9 4 359 359 0 359 357 359 5 6 359 350 346 345 347 353 353 343 326 302 288 282 273 269 281 294 288 279 285 277 270 270 265 254 245 230 210 199 191 183 177 172 171 172 174 178 186 193 196 194 194 198 206 210 206 201 204 212 225 244 264 280 287 291 297 309 319 323 323 324 332 351 6 10 7 358 348 344 346
0 9 17 22 18 10 6 1 358 1 3 358 355 3 15 17 10 4 1 357 354 359 4 356 343 322 301 289 276 270 278 289 299 357 304 269 262 260 244 204 199 203 195 183 173 171 170 165 160 159 161 166 173 180 186 189 193 201 208 206 201 202 212 228 247 262 274 280 283 287 296 309 320 324 325 331 350 19 28 15 3 358 354 354 358
5 13 19 25 25 22 19 14 5 5 9 8 7 13 19 17 10 9 12 13 13 21 32 23 355 329 301 276 255 253 264 287 56 60 51 237 235 235 218 193 187 193 194 185 173 169 166 157 151 155 161 167 175 184 191 194 197 203 206 208 211 220 236 252 264 272 276 276 278 284 295 309 320 325 328 338 7 29 24 13 11 13 12 10 9
3 11 14 18 24 27 30 29 22 16 15 19 25 30 31 22 13 11 17 24 30 43 57 56 42 34 43 57 219 217 207 90 56 53 95 164 169 169 167 161 158 163 170 169 163 161 162 160 161 165 169 174 182 190 197 203 208 209 211 218 230 242 254 263 268 269 270 272 274 281 294 308 320 327 332 348 24 34 22 23 28 25 20 16 11
7 8 7 10 18 26 32 34 33 30 27 28 36 42 44 41 32 24 25 35 45 52 56 57 56 61 69 71 76 89 92 82 73 105 134 142 148 151 148 144 149 157 162 162 163 170 174 172 171 174 178 182 191 203 212 220 222 221 222 233 246 252 257 263 266 265 266 267 268 275 291 307 321 331 337 351 26 42 37 35 33 25 17 14 11
0 353 355 2 12 23 32 37 39 40 39 38 40 41 42 44 44 40 38 44 53 59 60 62 66 73 78 82 85 88 94 103 117 129 135 140 147 153 151 147 149 156 159 164 173 184 188 184 181 184 190 198 209 219 223 225 228 231 235 245 252 251 252 262 270 269 267 262 263 272 288 307 323 333 335 341 18 50 51 41 31 22 13 11 12
333 337 347 360 11 21 30 36 41 47 48 47 44 42 40 40 43 45 45 48 54 61 65 68 73 78 84 92 97 101 113 130 135 135 140 148 157 161 159 156 155 156 159 164 171 177 179 179 183 192 202 212 219 221 222 225 233 238 239 240 236 230 242 297 317 313 294 268 268 275 287 310 330 337 328 325 24 59 59 43 31 22 12 9 9
321 339 353 7 14 19 26 32 38 45 49 49 47 48 47 44 42 45 50 54 58 64 72 79 84 84 83 86 93 103 122 142 149 147 146 148 152 157 159 160 160 158 155 155 158 162 166 173 182 190 203 221 230 229 228 230 232 232 229 223 201 170 125 70 37 20 11 338 291 293 308 328 340 343 338 348 58 74 64 44 31 22 14 11 8
351 356 9 18 15 13 17 26 34 41 47 49 49 51 52 52 49 50 55 61 65 70 76 81 85 87 86 91 106 125 142 154 156 153 146 140 137 138 142 146 149 149 148 150 159 167 173 177 182 191 215 241 241 220 206 205 210 215 215 198 168 148 121 88 48 31 32 38 29 3 1 359 358 7 24 37 53 66 60 46 34 23 15 10 5
34 10 13 13 8 7 12 14 14 25 47 56 53 51 54 55 53 53 56 60 63 69 78 84 83 80 83 95 115 134 146 151 150 146 141 134 129 130 136 143 152 163 173 181 184 186 188 194 210 236 255 251 216 193 186 187 197 207 197 176 161 148 128 104 54 36 40 46 44 38 33 25 26 42 48 45 43 42 44 44 36 23 14 8 3
102 87 34 10 2 1 2 358 355 4 35 68 67 64 65 63 59 56 57 58 60 63 68 76 82 84 88 95 105 119 136 144 145 139 128 112 99 101 112 134 169 187 194 197 200 202 208 223 237 241 233 212 197 191 188 184 186 187 176 166 157 138 124 106 56 33 36 40 40 40 42 46 49 49 41 36 36 36 33 33 33 26 19 13 9
151 141 122 72 28 1 340 334 338 348 0 29 97 104 89 79 76 75 71 69 68 67 66 69 76 83 89 94 99 106 119 130 135 134 124 109 94 85 83 87 115 161 180 192 204 213 220 228 227 216 199 188 185 187 188 192 192 179 168 161 144 116 115 93 36 12 12 26 34 37 41 51 55 44 31 29 36 34 21 15 27 31 23 16 12
Height
1511 1512 1514 1516 1518 1521 1524 1527 1529 1531 1532 1533 1534 1535 1536 1537 1538 1539 1540 1541 1542 1543 1544 1545 1546 1548 1549 1550 1551 1552 1553 1554 1555 1556 1557 1558 1559 1561 1562 1563 1564 1564 1564 1565 1565 1565 1566 1566 1567 1568 1569 1569 1570 1570 1570 1570 1570 1569 1569 1570 1570 1571 1572 1572 1572 1573 1575 1575 1575 1575 1576 1576 1577 1577 1577 1576 1576 1576 1575 1575 1575 1575 1575 1574 1574
1511 1512 1514 1516 1519 1521 1524 1527 1529 1531 1532 1534 1534 1535 1537 1538 1539 1539 1540 1541 1542 1544 1545 1546 1547 1548 1550 1551 1552 1553 1554 1555 1556 1557 1557 1558 1559 1561 1562 1563 1564 1564 1564 1565 1565 1566 1566 1566 1567 1568 1569 1569 1570 1570 1570 1571 1570 1570 1570 1571 1572 1573 1573 1573 1573 1574 1575 1575 1576 1576 1576 1576 1577 1577 1577 1576 1576 1575 1575 1574 1574 1574 1574 1574 1573
1512 1513 1515 1517 1519 1522 1524 1527 1528 1530 1532 1534 1535 1536 1537 1538 1539 1540 1540 1541 1543 1544 1545 1546 1547 1549 1550 1551 1553 1554 1555 1555 1556 1557 1558 1559 1560 1561 1562 1563 1564 1564 1564 1565 1565 1565 1566 1566 1567 1568 1568 1569 1569 1570 1570 1571 1571 1571 1571 1572 1572 1573 1573 1574 1574 1574 1575 1576 1576 1577 1577 1577 1577 1577 1577 1577 1576 1574 1574 1574 1573 1574 1574 1573 1573
1513 1514 1516 1518 1520 1522 1525 1527 1529 1531 1533 1534 1534 1536 1537 1538 1539 1540 1541 1542 1543 1544 1545 1546 1548 1549 1550 1552 1553 1554 1555 1555 1556 1557 1558 1559 1561 1562 1563 1564 1564 1564 1564 1564 1565 1565 1566 1566 1566 1567 1567 1568 1569 1569 1569 1570 1571 1571 1571 1572 1572 1572 1573 1573 1574 1574 1574 1575 1576 1577 1577 1577 1577 1577 1577 1577 1576 1575 1574 1573 1573 1573 1573 1572 1572
1514 1516 1517 1518 1520 1523 1526 1528 1530 1531 1533 1534 1534 1536 1537 1538 1539 1540 1541 1542 1543 1544 1545 1546 1548 1549 1550 1552 1553 1554 1554 1555 1556 1557 1558 1559 1561 1562 1563 1564 1564 1564 1564 1564 1565 1565 1565 1565 1565 1566 1566 1567 1567 1567 1568 1569 1569 1570 1571 1572 1572 1572 1572 1572 1573 1574 1574 1574 1575 1576 1577 1577 1577 1576 1576 1576 1576 1575 1574 1573 1572 1572 1572 1571 1571
1515 1517 1518 1519 1522 1525 1527 1528 1529 1530 1531 1532 1533 1534 1536 1537 1538 1540 1541 1542 1542 1543 1545 1546 1547 1549 1550 1552 1553 1554 1554 1555 1556 1556 1557 1559 1560 1561 1562 1563 1563 1564 1564 1564 1564 1564 1564 1564 1564 1564 1564 1564 1565 1566 1567 1567 1568 1569 1570 1571 1571 1572 1572 1572 1572 1573 1573 1574 1574 1575 1575 1576 1576 1575 1575 1576 1575 1575 1574 1573 1573 1572 1572 1571 1571
1515 1517 1520 1523 1526 1528 1528 1529 1528 1529 1530 1531 1532 1533 1534 1536 1538 1539 1541 1542 1543 1544 1545 1546 1547 1549 1550 1551 1552 1553 1553 1554 1555 1556 1556 1557 1558 1559 1560 1561 1561 1562 1562 1562 1563 1563 1563 1563 1563 1563 1563 1563 1563 1564 1565 1566 1567 1567 1568 1569 1570 1571 1571 1572 1572 1572 1573 1573 1574 1574 1575 1575 1575 1575 1574 1574 1574 1574 1573 1573 1573 1572 1572 1571 1571
1514 1517 1520 1523 1525 1527 1527 1527 1527 1529 1530 1531 1533 1534 1535 1537 1539 1540 1541 1542 1543 1544 1544 1545 1547 1548 1549 1550 1551 1552 1552 1553 1554 1555 1556 1556 1556 1557 1558 1558 1559 1560 1561 1561 1562 1562 1562 1562 1562 1562 1562 1562 1562 1562 1563 1564 1565 1566 1567 1568 1569 1570 1570 1571 1571 1572 1572 1572 1573 1573 1574 1574 1574 1574 1573 1572 1572 1572 1572 1572 1571 1571 1570 1570 1569
1516 1518 1521 1522 1523 1524 1525 1525 1527 1529 1531 1532 1534 1535 1536 1537 1538 1539 1540 1541 1542 1543 1543 1544 1545 1546 1547 1548 1549 1550 1551 1552 1553 1554 1555 1555 1555 1555 1556 1557 1557 1558 1559 1560 1560 1560 1560 1560 1560 1561 1561 1561 1561 1561 1561 1561 1562 1563 1564 1565 1567 1568 1569 1569 1570 1570 1571 1571 1571 1571 1571 1571 1572 1572 1571 1571 1571 1570 1570 1570 1569 1569 1568 1568 1567
1517 1519 1521 1522 1523 1523 1524 1525 1527 1529 1531 1534 1535 1534 1535 1536 1537 1538 1539 1540 1541 1542 1542 1543 1543 1544 1545 1546 1548 1549 1550 1551 1552 1553 1554 1554 1553 1554 1554 1555 1555 1556 1556 1557 1558 1558 1558 1558 1558 1559 1560 1559 1559 1559 1559 1560 1560 1561 1562 1563 1565 1566 1567 1567 1568 1569 1569 1569 1569 1570 1569 1569 1570 1570 1570 1569 1569 1569 1568 1568 1568 1567 1566 1565 1565
1517 1518 1520 1521 1522 1523 1524 1525 1526 1528 1531 1534 1535 1534 1535 1536 1537 1538 1539 1539 1540 1541 1541 1542 1542 1543 1544 1545 1547 1548 1549 1550 1550 1551 1552 1552 1552 1552 1552 1553 1553 1554 1554 1554 1555 1555 1555 1555 1556 1557 1557 1557 1557 1557 1557 1558 1558 1558 1560 1561 1562 1563 1564 1565 1566 1567 1567 1568 1568 1568 1568 1568 1568 1568 1568 1568 1568 1568 1567 1566 1565 1565 1564 1563 1562
1517 1518 1519 1520 1521 1522 1523 1524 1526 1528 1529 1532 1534 1534 1536 1537 1538 1539 1539 1539 1539 1539 1540 1540 1541 1542 1543 1544 1546 1547 1547 1548 1548 1549 1550 1549 1549 1549 1550 1551 1551 1551 1551 1551 1551 1551 1551 1552 1552 1553 1554 1555 1555 1555 1555 1556 1556 1557 1558 1558 1560 1561 1562 1563 1564 1565 1565 1566 1566 1566 1567 1567 1567 1567 1567 1566 1566 1566 1565 1564 1564 1562 1562 1560 1559
1517 1518 1519 1520 1522 1523 1524 1525 1526 1528 1529 1531 1533 1534 1535 1536 1537 1538 1538 1538 1538 1538 1538 1539 1539 1541 1542 1543 1544 1545 1546 1547 1546 1547 1548 1548 1547 1547 1547 1548 1548 1548 1548 1548 1548 1548 1548 1549 1549 1550 1551 1552 1552 1553 1554 1554 1555 1555 1556 1557 1558 1559 1560 1561 1562 1563 1563 1564 1564 1564 1565 1565 1565 1565 1565 1565 1564 1564 1563 1563 1562 1560 1559 1558 1556
1519 1520 1522 1523 1524 1524 1526 1527 1527 1529 1530 1532 1533 1534 1534 1535 1536 1537 1537 1537 1537 1537 1537 1537 1538 1539 1540 1541 1542 1543 1544 1545 1544 1545 1545 1546 1545 1545 1545 1545 1546 1546 1546 1545 1545 1545 1545 1546 1547 1548 1548 1549 1550 1551 1552 1553 1553 1554 1555 1555 1557 1558 1559 1560 1560 1561 1561 1562 1562 1562 1562 1563 1563 1563 1563 1563 1562 1562 1561 1560 1560 1558 1557 1556 1554
1521 1523 1525 1526 1526 1526 1527 1528 1529 1530 1532 1533 1534 1534 1535 1535 1535 1535 1536 1536 1536 1536 1536 1536 1536 1537 1538 1539 1540 1541 1542 1542 1542 1542 1543 1543 1543 1543 1543 1543 1543 1543 1543 1543 1543 1543 1543 1544 1545 1546 1547 1548 1549 1549 1550 1551 1552 1552 1553 1554 1556 1557 1557 1558 1559 1559 1559 1560 1560 1560 1560 1560 1560 1560 1560 1560 1559 1559 1558 1558 1557 1555 1554 1553 1551
1522 1523 1525 1526 1527 1528 1529 1529 1530 1531 1532 1533 1533 1534 1535 1535 1534 1535 1535 1535 1534 1534 1534 1534 1535 1535 1536 1537 1537 1538 1539 1539 1540 1540 1540 1540 1540 1540 1540 1541 1541 1541 1541 1541 1541 1541 1542 1543 1544 1545 1546 1547 1548 1548 1549 1550 1550 1551 1552 1553 1554 1555 1556 1556 1557 1557 1557 1558 1558 1558 1558 1558 1558 1558 1557 1557 1557 1557 1556 1555 1554 1553 1551 1550 1548
1524 1525 1526 1526 1527 1529 1530 1531 1532 1533 1533 1533 1533 1534 1535 1535 1534 1534 1534 1534 1533 1533 1533 1533 1533 1533 1533 1534 1534 1535 1536 1536 1537 1537 1537 1537 1538 1538 1538 1538 1539 1539 1539 1540 1540 1540 1541 1542 1543 1544 1546 1547 1547 1548 1548 1549 1549 1550 1551 1552 1553 1554 1554 1554 1555 1555 1555 1556 1556 1556 1556 1556 1556 1556 1555 1555 1555 1554 1553 1553 1552 1550 1549 1547 1546
1526 1527 1528 1528 1528 1529 1531 1532 1533 1533 1533 1534 1534 1534 1534 1533 1534 1534 1534 1534 1533 1533 1532 1532 1531 1531 1531 1532 1532 1532 1533 1534 1534 1534 1534 1535 1535 1536 1537 1537 1537 1537 1538 1538 1538 1539 1541 1542 1543 1544 1545 1546 1546 1547 1547 1547 1548 1548 1549 1550 1551 1552 1552 1552 1553 1553 1553 1554 1554 1554 1554 1554 1554 1553 1553 1553 1552 1551 1551 1550 1549 1548 1547 1545 1544
1527 1528 1529 1530 1530 1531 1531 1532 1532 1533 1533 1534 1534 1534 1533 1533 1533 1533 1534 1534 1533 1533 1532 1531 1531 1530 1530 1530 1530 1531 1531 1531 1532 1532 1532 1533 1534 1534 1535 1536 1535 1535 1536 1536 1537 1538 1539 1541 1542 1543 1544 1544 1545 1546 1546 1547 1547 1547 1547 1548 1549 1550 1550 1550 1551 1551 1552 1552 1552 1552 1552 1552 1552 1551 1551 1551 1550 1549 1548 1547 1546 1546 1545 1544 1542
1527 1528 1529 1529 1530 1531 1531 1532 1532 1532 1533 1533 1533 1533 1533 1533 1532 1532 1532 1532 1532 1532 1532 1531 1530 1530 1529 1529 1529 1530 1530 1530 1530 1530 1530 1531 1532 1533 1534 1534 1534 1533 1534 1534 1535 1536 1538 1539 1541 1542 1542 1543 1544 1544 1545 1545 1546 1546 1546 1546 1547 1548 1548 1549 1549 1549 1549 1550 1550 1550 1550 1550 1549 1549 1548 1548 1547 1547 1546 1545 1544 1543 1543 1542 1541
1526 1527 1527 1528 1529 1529 1530 1531 1531 1531 1531 1532 1532 1532 1532 1532 1532 1531 1531 1530 1530 1530 1530 1529 1529 1528 1528 1528 1528 1528 1528 1528 1528 1529 1529 1530 1531 1531 1532 1533 1533 1532 1532 1533 1534 1535 1536 1537 1539 1540 1541 1541 1542 1543 1543 1544 1544 1545 1545 1545 1545 1546 1546 1547 1547 1547 1547 1548 1548 1548 1548 1547 1547 1546 1545 1545 1545 1544 1544 1543 1542 1541 1541 1540 1538
1525 1525 1525 1525 1526 1527 1527 1528 1528 1528 1529 1529 1529 1529 1529 1529 1529 1529 1528 1528 1528 1527 1527 1527 1527 1526 1526 1526 1526 1527 1527 1527 1527 1527 1528 1528 1529 1530 1530 1531 1531 1531 1531 1532 1533 1534 1534 1536 1537 1538 1539 1540 1540 1541 1541 1542 1542 1543 1543 1543 1543 1544 1544 1545 1545 1546 1546 1545 1545 1546 1546 1545 1544 1543 1543 1543 1543 1542 1542 1541 1540 1539 1539 1538 1536
1523 1523 1523 1523 1523 1524 1524 1525 1525 1525 1525 1525 1526 1526 1526 1526 1526 1526 1526 1525 1525 1525 1524 1524 1524 1524 1524 1524 1524 1524 1525 1526 1526 1526 1526 1526 1527 1527 1527 1528 1529 1529 1530 1530 1531 1533 1533 1534 1535 1536 1537 1538 1539 1539 1539 1540 1540 1541 1541 1541 1542 1542 1542 1543 1543 1543 1544 1543 1543 1544 1544 1543 1542 1542 1542 1541 1541 1540 1540 1539 1538 1537 1536 1536 1534
1521 1521 1521 1521 1521 1521 1521 1521 1522 1522 1522 1522 1522 1522 1522 1522 1522 1522 1522 1522 1522 1522 1522 1522 1522 1521 1521 1522 1521 1522 1522 1522 1523 1524 1524 1524 1524 1524 1525 1525 1526 1527 1528 1528 1530 1531 1531 1532 1533 1534 1535 1536 1537 1537 1538 1538 1538 1539 1539 1539 1540 1540 1540 1540 1541 1541 1542 1542 1542 1542 1541 1541 1541 1541 1541 1540 1539 1539 1537 1536 1536 1535 1534 1533 1532
1519 1518 1518 1518 1518 1518 1518 1518 1518 1518 1517 1518 1518 1518 1518 1518 1519 1519 1519 1519 1519 1519 1519 1519 1519 1518 1518 1519 1519 1519 1519 1519 1521 1522 1522 1522 1522 1522 1522 1523 1524 1525 1525 1526 1528 1529 1530 1531 1531 1532 1533 1534 1534 1535 1535 1536 1536 1537 1537 1537 1538 1538 1538 1539 1539 1540 1540 1540 1540 1540 1540 1539 1539 1539 1539 1539 1538 1537 1536 1535 1534 1532 1531 1530 1529
1516 1516 1516 1516 1515 1515 1515 1514 1514 1514 1514 1515 1515 1515 1516 1516 1516 1516 1516 1516 1516 1516 1516 1516 1516 1515 1516 1516 1516 1516 1517 1517 1518 1519 1519 1519 1519 1519 1520 1520 1521 1522 1523 1524 1526 1526 1527 1528 1529 1530 1530 1531 1532 1532 1533 1533 1534 1534 1535 1535 1536 1536 1537 1537 1538 1538 1539 1539 1539 1538 1538 1538 1537 1537 1537 1536 1535 1534 1533 1532 1531 1529 1528 1526 1525
1515 1515 1514 1514 1514 1513 1512 1511 1511 1511 1512 1512 1512 1512 1513 1513 1513 1513 1514 1514 1514 1514 1514 1514 1513 1513 1513 1513 1513 1514 1514 1515 1515 1515 1516 1516 1515 1515 1515 1517 1518 1519 1520 1521 1522 1523 1525 1526 1526 1526 1527 1528 1529 1530 1530 1531 1532 1533 1533 1533 1534 1535 1535 1535 1536 1536 1537 1537 1537 1537 1537 1536 1536 1535 1535 1534 1533 1531 1530 1529 1527 1526 1524 1522 1521
1514 1513 1513 1513 1512 1511 1510 1510 1510 1510 1510 1510 1510 1510 1510 1510 1510 1511 1511 1511 1511 1511 1511 1511 1511 1511 1511 1511 1511 1511 1511 1511 1512 1512 1513 1513 1512 1512 1513 1514 1515 1516 1517 1517 1519 1520 1522 1523 1522 1523 1524 1526 1527 1528 1528 1529 1530 1531 1531 1532 1532 1533 1533 1534 1534 1535 1535 1535 1535 1536 1535 1535 1534 1533 1532 1531 1530 1529 1527 1526 1524 1523 1521 1519 1518
1512 1512 1512 1512 1511 1510 1509 1509 1509 1509 1508 1508 1509 1509 1509 1509 1509 1509 1510 1509 1508 1508 1508 1508 1508 1508 1508 1509 1509 1509 1509 1508 1508 1509 1509 1510 1510 1511 1511 1512 1513 1514 1515 1516 1517 1519 1519 1520 1521 1522 1524 1525 1526 1526 1527 1528 1528 1529 1530 1530 1531 1531 1532 1532 1533 1533 1534 1534 1534 1534 1533 1533 1532 1531 1530 1529 1528 1526 1525 1524 1522 1520 1518 1517 1516
1511 1510 1510 1510 1510 1509 1508 1508 1508 1508 1508 1507 1507 1507 1507 1508 1508 1508 1507 1507 1507 1506 1506 1505 1505 1505 1505 1506 1506 1507 1507 1507 1507 1507 1506 1507 1508 1508 1509 1510 1511 1512 1513 1514 1516 1517 1518 1519 1520 1522 1524 1525 1525 1525 1525 1526 1526 1528 1528 1529 1529 1530 1530 1531 1531 1532 1532 1532 1532 1532 1531 1530 1529 1529 1528 1527 1526 1524 1523 1521 1519 1518 1516 1515 1514
1510 1509 1509 1508 1508 1508 1508 1507 1507 1507 1506 1506 1505 1504 1504 1505 1506 1506 1505 1505 1504 1504 1504 1503 1503 1503 1502 1502 1503 1503 1504 1504 1505 1505 1505 1505 1506 1506 1507 1508 1508 1509 1510 1511 1512 1514 1517 1519 1520 1521 1523 1524 1524 1524 1524 1524 1525 1526 1527 1528 1528 1529 1529 1529 1530 1531 1531 1531 1531 1530 1529 1528 1527 1527 1526 1525 1524 1522 1521 1519 1517 1516 1515 1514 1512
1509 1509 1509 1508 1508 1508 1507 1506 1506 1506 1505 1504 1504 1503 1501 1500 1501 1502 1502 1502 1502 1502 1501 1501 1501 1501 1500 1500 1500 1500 1501 1501 1502 1502 1503 1503 1504 1504 1505 1505 1506 1506 1508 1509 1509 1511 1514 1517 1519 1520 1521 1522 1522 1522 1522 1522 1524 1525 1526 1526 1527 1528 1528 1528 1529 1529 1529 1529 1529 1529 1527 1527 1526 1525 1524 1523 1522 1521 1519 1517 1516 1515 1513 1512 1511
1510 1510 1509 1509 1508 1507 1507 1506 1505 1504 1504 1503 1502 1501 1500 1498 1497 1496 1497 1498 1498 1498 1498 1498 1498 1497 1497 1498 1497 1497 1497 1498 1498 1499 1500 1501 1501 1502 1502 1503 1503 1504 1505 1506 1507 1508 1510 1513 1516 1518 1519 1520 1520 1520 1520 1521 1522 1523 1524 1525 1525 1526 1527 1527 1527 1527 1528 1528 1527 1527 1526 1525 1524 1523 1522 1521 1520 1518 1517 1516 1514 1513 1512 1511 1510
1511 1510 1510 1509 1509 1508 1506 1505 1504 1503 1502 1501 1500 1499 1498 1497 1495 1494 1493 1493 1493 1493 1493 1495 1495 1494 1494 1495 1495 1494 1494 1495 1495 1496 1497 1498 1499 1500 1500 1500 1501 1502 1502 1503 1504 1505 1508 1511 1513 1514 1515 1516 1517 1518 1518 1519 1520 1521 1522 1523 1524 1524 1525 1526 1526 1526 1526 1526 1526 1525 1524 1524 1523 1522 1520 1519 1518 1516 1515 1514 1513 1512 1511 1509 1508
1512 1511 1510 1510 1509 1508 1506 1505 1503 1502 1500 1499 1498 1497 1496 1494 1493 1492 1491 1490 1490 1489 1489 1490 1490 1491 1491 1492 1492 1492 1492 1492 1492 1493 1494 1494 1495 1497 1497 1497 1498 1499 1499 1499 1500 1501 1503 1506 1508 1510 1511 1512 1513 1515 1516 1517 1519 1520 1521 1522 1522 1523 1524 1524 1525 1525 1525 1525 1525 1524 1523 1522 1521 1520 1519 1517 1516 1515 1513 1512 1511 1510 1509 1508 1507
1512 1511 1510 1509 1508 1507 1505 1504 1502 1500 1499 1498 1496 1495 1494 1492 1491 1490 1489 1489 1488 1487 1486 1486 1486 1487 1488 1489 1489 1489 1489 1489 1490 1490 1491 1491 1492 1493 1493 1494 1495 1495 1495 1495 1495 1496 1498 1501 1504 1507 1510 1511 1511 1513 1515 1516 1518 1519 1520 1521 1522 1522 1523 1524 1524 1524 1524 1524 1523 1522 1521 1520 1519 1518 1517 1516 1514 1513 1512 1511 1510 1509 1508 1507 1505
1513 1511 1510 1509 1507 1506 1504 1503 1501 1499 1498 1497 1495 1494 1492 1491 1489 1488 1487 1486 1485 1484 1483 1483 1483 1484 1485 1486 1487 1488 1488 1487 1488 1488 1488 1489 1489 1490 1490 1491 1491 1491 1491 1491 1490 1492 1494 1498 1502 1505 1508 1509 1510 1512 1514 1515 1516 1518 1519 1520 1521 1521 1522 1523 1523 1522 1522 1522 1521 1521 1520 1519 1518 1517 1515 1514 1512 1511 1510 1509 1508 1507 1506 1505 1504
1513 1511 1510 1508 1507 1505 1503 1502 1501 1499 1498 1496 1495 1493 1491 1489 1488 1487 1486 1485 1483 1482 1481 1481 1481 1482 1483 1484 1485 1486 1486 1486 1486 1486 1487 1487 1487 1488 1488 1489 1489 1489 1490 1491 1491 1491 1494 1497 1500 1503 1506 1507 1509 1511 1513 1514 1515 1516 1518 1519 1520 1521 1522 1522 1521 1521 1520 1520 1520 1519 1519 1518 1517 1515 1513 1512 1510 1509 1509 1508 1507 1506 1505 1505 1503
1513 1511 1510 1508 1506 1505 1503 1502 1501 1499 1498 1496 1494 1492 1490 1489 1487 1486 1485 1484 1482 1481 1480 1480 1481 1481 1482 1483 1484 1484 1485 1485 1485 1485 1485 1486 1487 1487 1488 1488 1488 1489 1490 1491 1492 1492 1493 1495 1497 1501 1503 1505 1507 1509 1512 1513 1515 1516 1517 1518 1519 1520 1520 1520 1520 1519 1519 1519 1519 1518 1518 1516 1515 1513 1512 1510 1509 1508 1507 1507 1506 1505 1505 1504 1502
1513 1511 1509 1508 1506 1505 1503 1502 1501 1499 1497 1496 1494 1492 1491 1489 1487 1486 1484 1483 1482 1481 1481 1480 1481 1481 1482 1482 1482 1483 1483 1484 1484 1484 1484 1485 1486 1487 1488 1488 1489 1489 1490 1491 1491 1492 1493 1493 1495 1499 1501 1503 1505 1509 1511 1512 1514 1515 1516 1517 1518 1518 1518 1518 1518 1518 1518 1518 1517 1517 1516 1515 1514 1512 1511 1509 1508 1507 1507 1506 1506 1505 1504 1503 1502
1513 1511 1510 1508 1506 1505 1503 1502 1501 1500 1498 1496 1494 1493 1491 1490 1489 1487 1485 1483 1481 1481 1481 1480 1480 1480 1481 1481 1481 1482 1482 1482 1482 1483 1484 1485 1486 1487 1488 1489 1490 1491 1492 1493 1494 1494 1494 1495 1496 1499 1501 1503 1505 1508 1510 1512 1513 1514 1515 1516 1517 1517 1517 1517 1517 1517 1517 1517 1516 1516 1515 1514 1513 1511 1510 1508 1507 1507 1507 1506 1505 1505 1504 1503 1501
1513 1512 1510 1509 1507 1505 1504 1503 1501 1500 1498 1496 1495 1493 1492 1491 1490 1488 1486 1484 1482 1481 1481 1480 1480 1480 1480 1480 1480 1481 1482 1482 1482 1482 1483 1485 1486 1488 1489 1490 1491 1492 1493 1495 1496 1496 1496 1496 1497 1500 1502 1504 1505 1507 1509 1511 1513 1514 1515 1516 1516 1517 1517 1516 1516 1516 1516 1515 1515 1515 1514 1513 1512 1511 1509 1508 1507 1507 1507 1506 1505 1504 1503 1502 1501
1513 1511 1510 1509 1508 1506 1505 1503 1502 1500 1499 1497 1495 1494 1493 1492 1491 1489 1488 1486 1485 1484 1482 1482 1481 1480 1480 1480 1480 1481 1482 1482 1482 1483 1483 1485 1487 1488 1489 1490 1491 1493 1494 1495 1496 1497 1498 1498 1499 1501 1503 1504 1506 1507 1509 1511 1512 1514 1515 1515 1516 1516 1515 1515 1515 1514 1514 1514 1514 1514 1513 1512 1511 1510 1508 1507 1507 1507 1506 1506 1505 1504 1503 1501 1500
1512 1511 1510 1510 1509 1507 1506 1504 1502 1501 1499 1498 1497 1496 1494 1493 1492 1490 1489 1488 1487 1486 1485 1484 1483 1482 1481 1481 1482 1483 1484 1484 1484 1484 1485 1487 1488 1489 1490 1491 1492 1493 1495 1496 1497 1499 1499 1499 1500 1502 1504 1505 1506 1508 1509 1511 1513 1514 1515 1515 1515 1514 1514 1513 1513 1513 1513 1513 1513 1513 1512 1511 1510 1509 1508 1507 1506 1506 1506 1505 1504 1503 1502 1501 1499
1512 1511 1510 1510 1509 1508 1507 1505 1503 1502 1501 1500 1498 1497 1496 1495 1493 1492 1491 1490 1489 1489 1488 1487 1486 1485 1484 1484 1485 1486 1486 1486 1486 1487 1488 1489 1490 1491 1492 1493 1494 1495 1496 1497 1499 1500 1500 1501 1501 1503 1504 1506 1507 1508 1510 1511 1513 1514 1514 1514 1514 1513 1513 1513 1512 1512 1512 1512 1512 1511 1511 1510 1509 1508 1507 1506 1506 1506 1505 1504 1503 1502 1501 1500 1499
1513 1511 1510 1509 1509 1508 1507 1506 1504 1503 1502 1501 1500 1499 1497 1496 1495 1494 1493 1493 1492 1491 1491 1490 1489 1489 1488 1488 1488 1488 1489 1489 1489 1489 1490 1491 1491 1492 1493 1495 1496 1497 1498 1499 1500 1501 1502 1502 1503 1504 1505 1506 1508 1509 1510 1511 1512 1513 1513 1513 1513 1512 1512 1512 1512 1511 1511 1511 1511 1510 1510 1509 1508 1508 1507 1506 1505 1505 1504 1504 1503 1502 1501 1499 1498
1513 1512 1511 1510 1509 1508 1507 1506 1505 1504 1503 1502 1501 1500 1499 1498 1497 1496 1495 1495 1494 1493 1493 1492 1492 1491 1491 1491 1491 1491 1491 1491 1492 1492 1492 1492 1493 1494 1495 1496 1497 1498 1499 1500 1501 1502 1503 1503 1504 1505 1506 1507 1509 1510 1511 1511 1511 1512 1512 1512 1512 1512 1512 1512 1511 1511 1510 1510 1510 1510 1509 1509 1508 1507 1506 1505 1505 1504 1504 1503 1502 1501 1500 1499 1498
1513 1512 1511 1510 1509 1508 1508 1507 1506 1505 1504 1503 1502 1501 1500 1499 1498 1497 1497 1496 1496 1495 1495 1495 1494 1494 1494 1494 1493 1493 1493 1493 1493 1494 1494 1494 1495 1496 1497 1497 1498 1499 1500 1501 1502 1502 1503 1504 1505 1506 1507 1508 1509 1509 1510 1510 1511 1511 1511 1511 1512 1512 1512 1512 1511 1511 1510 1510 1509 1509 1509 1508 1507 1506 1505 1505 1504 1504 1503 1502 1502 1501 1500 1499 1498
1513 1512 1511 1510 1509 1509 1508 1507 1506 1506 1505 1504 1503 1502 1501 1501 1500 1499 1498 1498 1497 1496 1496 1496 1496 1496 1496 1496 1496 1496 1495 1495 1496 1496 1496 1497 1498 1498 1499 1499 1500 1501 1501 1502 1502 1503 1504 1505 1506 1506 1507 1508 1508 1509 1510 1510 1511 1511 1511 1511 1512 1512 1512 1511 1511 1510 1510 1510 1509 1509 1508 1508 1507 1506 1505 1504 1504 1503 1502 1502 1501 1501 1500 1499 1498
1512 1512 1511 1510 1510 1509 1508 1507 1507 1506 1505 1505 1504 1504 1503 1502 1501 1501 1500 1499 1499 1498 1498 1497 1497 1497 1497 1497 1497 1497 1498 1498 1498 1498 1499 1499 1500 1500 1500 1501 1501 1501 1502 1503 1503 1504 1505 1506 1506 1507 1507 1508 1508 1509 1510 1510 1510 1511 1511 1511 1511 1511 1511 1511 1511 1510 1510 1510 1509 1508 1508 1507 1507 1506 1505 1504 1503 1502 1502 1501 1501 1500 1500 1498 1497
1512 1512 1511 1510 1510 1509 1508 1507 1507 1506 1506 1505 1505 1504 1503 1503 1502 1502 1501 1501 1500 1500 1499 1499 1499 1499 1499 1499 1499 1499 1499 1500 1500 1500 1500 1501 1501 1501 1501 1502 1502 1502 1503 1504 1504 1505 1505 1506 1506 1507 1508 1508 1509 1509 1510 1510 1510 1511 1511 1511 1511 1511 1510 1510 1510 1510 1510 1510 1509 1508 1508 1507 1506 1506 1505 1504 1503 1502 1501 1501 1501 1500 1499 1498 1497